Location: Eaton
(41.3139°N, 82.0207°W)
Time: 01:54:42
(UTC+00:00)

Cosmos 1606 - Pass Details

Date: 17 June 2021
Orbit: 501 x 527 km, 82.5° (Epoch: 02 August)

Event Time Altitude Azimuth Distance (km) Brightness Sun altitude
Rises 08:04:34 0° 341° (NNW) 2,652 6.8 -15.9°
Reaches altitude 10° 08:06:54 10° 330° (NNW) 1,754 5.7 -15.7°
Maximum altitude 08:10:15 29° 269° (W) 966 3.7 -15.3°
Enters shadow 08:11:06 26° 245° (WSW) 1,033 3.7 -15.2°
